This is the latest recevied weather packets stored in our database for station/object KL1SF-7. If no packets are shown the sender has not sent any weather packets the latest 10 day(s).
| Time | Temp. | Humidity | Pressure | Rain* | Wind** | Luminosity | Snow |
|---|---|---|---|---|---|---|---|
| 1777757017 | 17.78° C | 11% | 1020.7 hPa | 0 mm | - | - | - |
| 1777756407 | 17.78° C | 11% | 1020.7 hPa | 0 mm | - | - | - |
| 1777755820 | 17.78° C | 11% | 1020.8 hPa | 0 mm | - | - | - |
| 1777755220 | 17.78° C | 11% | 1020.8 hPa | 0 mm | - | - | - |
| 1777754610 | 17.78° C | 12% | 1020.8 hPa | 0 mm | - | - | - |
| 1777754027 | 17.22° C | 12% | 1021.2 hPa | 0 mm | - | - | - |
| 1777753407 | 17.22° C | 13% | 1021.2 hPa | 0 mm | - | - | - |
| 1777752818 | 17.22° C | 12% | 1021.2 hPa | 0 mm | - | - | - |
| 1777752230 | 17.22° C | 12% | 1021 hPa | 0 mm | - | - | - |
| 1777751611 | 17.22° C | 12% | 1021.1 hPa | 0 mm | - | - | - |
| 1777751020 | 16.67° C | 12% | 1021.1 hPa | 0 mm | - | - | - |
| 1777750417 | 17.22° C | 11% | 1021.2 hPa | 0 mm | - | - | - |
| 1777749818 | 17.22° C | 11% | 1021.2 hPa | 0 mm | - | - | - |
| 1777749207 | 16.67° C | 12% | 1021.2 hPa | 0 mm | - | - | - |
| 1777748619 | 16.11° C | 11% | 1021.7 hPa | 0 mm | - | - | - |
| 1777748020 | 15.56° C | 12% | 1021.9 hPa | 0 mm | - | - | - |
| 1777747410 | 16.11° C | 12% | 1021.9 hPa | 0 mm | - | - | - |
| 1777746826 | 15.56° C | 12% | 1022.4 hPa | 0 mm | - | - | - |
| 1777746207 | 16.11° C | 11% | 1022.4 hPa | 0 mm | - | - | - |
| 1777745617 | 15° C | 13% | 1022.4 hPa | 0 mm | - | - | - |
| 1777745030 | 15.56° C | 12% | 1022.4 hPa | 0 mm | - | - | - |
| 1777744410 | 15.56° C | 14% | 1022.4 hPa | 0 mm | - | - | - |
| 1777743806 | 15.56° C | 13% | 1022.4 hPa | 0 mm | - | - | - |
| 1777743223 | 15.56° C | 13% | 1022.4 hPa | 0 mm | - | - | - |
| 1777742603 | 15.56° C | 13% | 1022.2 hPa | 0 mm | - | - | - |
* Rain since midnight (hover to see other rain measurements)
** Current wind speed in m/s (hover to see current wind gust speed)